Location: Unspecified
(54.1780°N, 0.0000°E)
Time: 22:59:54
(UTC+00:00)

Vanguard 2 - Pass Details

Date: 17 June 2019
Orbit: 554 x 2938 km, 32.9° (Epoch: 13 October)

Event Time Altitude Azimuth Distance (km) Brightness Sun altitude
Rises 14:50:45 0° 257° (WSW) 5,261 12.5 45.9°
Reaches altitude 10° 14:55:32 10° 240° (WSW) 4,678 12.6 45.3°
Maximum altitude 15:03:27 18° 205° (SSW) 4,580 12.3 44.2°
Drops below altitude 10° 15:12:49 10° 170° (S) 5,635 12.2 43.0°
Sets 15:19:40 0° 155° (SSE) 6,776 12.3 42.0°
